Aérodrome :
LOGIN :

S'inscrire | Disclaimer

   EN    FR    IT 

 










Légende :    VFR   VFR Marginal   IFR   IFR Intensif   IFR Très Intensif
Visi : 
Plafond : 
>= 8 km
>= 3000ft
5 à 8 km
1000 à 3000 ft
1500m à 5 km
500 à 1000 ft
800 à 1500m
200 à 500 ft
< 800m
< 200 ft
Symboles :   Orages  Brouillard  Fortes neiges  Fortes précipitations  Vent > 20 kt
SIGMETs :   Divers  Orages  Givrage  Turbulence  Onde Orograph.  Cendres Volcan.







- Altitude de l'aérodrome : 195 ft
- Voir les cartes d'approche


LFMY - Salon de Provence

DERNIER METAR :
  • 181530Z AUTO 33009KT 280V350 CAVOK 06/M04 Q1014

METARs EXPIRÉS :
  • 181500Z AUTO 33015KT CAVOK 07/M05 Q1014
  • 181430Z AUTO 33015KT 290V350 CAVOK 07/M06 Q1014 BECMG 31018G28KT
  • 181400Z AUTO 33013KT 290V350 CAVOK 07/M05 Q1014 BECMG 31018G28KT
  • 181330Z AUTO 32013KT CAVOK 08/M04 Q1014 BECMG 31018G28KT
  • 181300Z AUTO 33018KT CAVOK 08/M03 Q1014 BECMG 31018G28KT

TAF TAF LFMY
Valide du 18 à 15h jusqu'au 19 à 15h UTC


181400Z 1815/1915 31018G28KT CAVOK
BECMG 1817/1819 32015KT
BECMG 1900/1902 VRB02KT
Pas de NOTAMs connus pour ce terrain.



MET'MAP, la Météo Aéronautique d'un coup d'oeil ! - Copyright ORBIFLY Décembre 2007 - Disclaimer

ORBIFLY MET'MAP TEAM :

Programmation & Développement : Alexandra Zaïnal
Conception & Développement : Baudouin d'Aumeries
Co-Programmation & Développement : Marc-Olivier Méhu
Soutien technique & logistique : Manuel Goepfert

Contact : metmap@orbifly.com




SOURCES & CREDITS :

   NOAA